User: anonymous   Login
Location: *
(37.5724°S, 58.0067°E)
Time: 21:45:57
(UTC+00:00)
Language:

Genesis I - Orbit

View from above orbital plane
View from above orbital plane
View from above satellite
View from above satellite

Ground track
Ground track

The orbit data is extracted from the following two-line orbital elements,

1 29252U 06029A   21134.77415707  .00000461  00000-0  31918-4 0  9993
2 29252  64.5221 297.5518 0039653 325.2465  34.6069 15.18641934818403
Epoch (UTC): 14 May 2021 18:34:47
Eccentricity: 0.0039653
inclination: 64.5221°
perigee height: 482 km
apogee height: 537 km
right ascension of ascending node: 297.5518°
argument of perigee: 325.2465°
revolutions per day: 15.18641934
mean anomaly at epoch: 34.6069°
orbit number at epoch: 81840

The dashed part of the orbit path shows where the satellite is in the earth's shadow,  

DLR